MMS 2 (40483 NORAD) Tracking and Keplerian Element Data

This shows tracking and keplerian element data for the satellite.

Feedback or suggestion? Click here.




ElementValue
Catalog40483
NameMMS 2
Epoch Orbit1249
Epoch Day258.46668899
Epoch Year2021
RAAN114.6905
Inclination33.5068
Eccentricity0.843477
Argument of Perigee37.2948
Mean Anonmoly52.3509
Mean Motion0.28491614
Decay Rate-1.857E-05
L11 40483U 15011A 21258.46668899 -.00001857 00000-0 00000+0 0 9992
L22 40483 33.5068 114.6905 8434770 37.2948 52.3509 0.28491614 12493

Live tracking and technical data element details for MMS 2 (NORAD 40483). MMS 2 can be tracked NOW for your location showing map with azimuth and elevation plus other details from your city location.

Track the satellite on the map from your city or location and see movement details for azimuth, elevation, latitude, longitude, range, height, and movement on the map or in text.







IsCatalogInMostPopularTable: catalog: 40483, numindb: 564
Update: records affected: 1



GetName: 40483 MMS 2

Hit Count: updated at: Tue, 28 Sep 2021 16:25:21 GMT